Powrót do katalogu

SL-12 DEB

LostHEO
NORAD 42978·DEBRIS·🇷🇺 Russia

Wystrzelony Sep 2, 2010 z Baikonur Cosmodrome

Loading…

Następne Przeloty (najbliższe 24 godziny)

TLE

NieaktualneSource: Space-Track

Epoka: Jan 30, 2022, 02:38 UTC

1 42978U 10041T   22030.10981372  .00147006  00000-0  29091+0 0  9992
2 42978  65.4509 280.5404 5547322 341.3597   4.5885  4.52956649 72508

Śledź SL-12 DEB w czasie rzeczywistym z AllMySat

Download on the App Store